TimeEDT,TemperatureF,Dew PointF,Humidity,Sea Level PressureIn,VisibilityMPH,Wind Direction,Wind SpeedMPH,Gust SpeedMPH,PrecipitationIn,Events,Conditions,WindDirDegrees,DateUTC
12:51 AM,53.1,51.1,93,29.89,10.0,Calm,Calm,-,N/A,,Overcast,0,2013-08-13 04:51:00
1:51 AM,54.0,52.0,93,29.86,10.0,Calm,Calm,-,N/A,,Overcast,0,2013-08-13 05:51:00
2:51 AM,54.0,53.1,97,29.83,9.0,Calm,Calm,-,0.02,,Overcast,0,2013-08-13 06:51:00
3:51 AM,52.0,51.1,97,29.81,1.8,Calm,Calm,-,N/A,,Clear,0,2013-08-13 07:51:00
3:58 AM,51.8,51.8,100,29.82,3.0,Calm,Calm,-,N/A,,Partly Cloudy,0,2013-08-13 07:58:00
4:41 AM,51.8,51.8,100,29.81,9.0,Calm,Calm,-,N/A,,Mostly Cloudy,0,2013-08-13 08:41:00
4:51 AM,53.1,52.0,96,29.80,10.0,Calm,Calm,-,N/A,,Mostly Cloudy,0,2013-08-13 08:51:00
4:59 AM,53.6,51.8,94,29.81,10.0,Calm,Calm,-,N/A,,Mostly Cloudy,0,2013-08-13 08:59:00
5:51 AM,53.1,52.0,96,29.80,9.0,Calm,Calm,-,N/A,,Mostly Cloudy,0,2013-08-13 09:51:00
6:51 AM,55.0,54.0,96,29.80,9.0,Calm,Calm,-,N/A,,Mostly Cloudy,0,2013-08-13 10:51:00
7:51 AM,59.0,57.9,96,29.79,8.0,Calm,Calm,-,N/A,,Overcast,0,2013-08-13 11:51:00
8:01 AM,60.8,57.2,88,29.80,10.0,Calm,Calm,-,N/A,,Overcast,0,2013-08-13 12:01:00
8:19 AM,59.0,57.2,94,29.79,8.0,WSW,3.5,-,N/A,,Overcast,240,2013-08-13 12:19:00
8:32 AM,60.8,57.2,88,29.79,7.0,WSW,4.6,-,0.00,Rain,Light Rain,240,2013-08-13 12:32:00
8:51 AM,60.1,57.9,93,29.79,9.0,SW,6.9,-,0.00,,Overcast,230,2013-08-13 12:51:00
9:51 AM,63.0,60.1,90,29.78,10.0,SSW,5.8,-,N/A,,Overcast,210,2013-08-13 13:51:00
10:22 AM,62.6,59.0,88,29.79,10.0,SSW,9.2,-,N/A,,Overcast,210,2013-08-13 14:22:00
10:29 AM,64.4,60.8,88,29.79,10.0,SW,6.9,-,N/A,,Overcast,230,2013-08-13 14:29:00
10:51 AM,64.0,60.1,87,29.78,10.0,SW,8.1,-,N/A,,Overcast,220,2013-08-13 14:51:00
11:32 AM,64.4,59.0,83,29.78,7.0,SW,9.2,-,0.00,Rain,Light Rain,220,2013-08-13 15:32:00
11:51 AM,62.1,60.1,93,29.78,1.2,Variable,3.5,-,0.06,Rain,Rain,0,2013-08-13 15:51:00
12:00 PM,62.6,60.8,94,29.78,0.5,WSW,4.6,-,0.07,Fog-Rain,Heavy Rain,240,2013-08-13 16:00:00
12:37 PM,62.6,60.8,94,29.77,1.8,SSW,3.5,-,0.36,Rain,Rain,210,2013-08-13 16:37:00
12:47 PM,60.8,60.8,100,29.76,2.5,Calm,Calm,-,0.38,Rain,Light Rain,0,2013-08-13 16:47:00
12:51 PM,61.0,60.1,97,29.77,2.5,Calm,Calm,-,0.38,Rain,Rain,0,2013-08-13 16:51:00
1:04 PM,60.8,59.0,94,29.77,4.0,WSW,5.8,-,0.02,Rain,Light Rain,250,2013-08-13 17:04:00
1:51 PM,59.0,57.0,93,29.76,10.0,Calm,Calm,-,0.05,,Overcast,0,2013-08-13 17:51:00
2:04 PM,60.8,57.2,88,29.77,1.8,SSW,5.8,-,0.04,Rain,Heavy Rain,200,2013-08-13 18:04:00
2:11 PM,60.8,59.0,94,29.77,2.0,South,6.9,-,0.05,Rain,Rain,170,2013-08-13 18:11:00
2:20 PM,60.8,57.2,88,29.76,5.0,SSE,4.6,-,0.05,Rain,Light Rain,150,2013-08-13 18:20:00
2:51 PM,60.1,57.9,93,29.75,10.0,South,5.8,-,0.06,,Mostly Cloudy,190,2013-08-13 18:51:00
3:15 PM,62.6,59.0,88,29.74,10.0,Calm,Calm,-,N/A,,Mostly Cloudy,0,2013-08-13 19:15:00
3:25 PM,62.6,57.2,82,29.74,10.0,Variable,4.6,-,N/A,,Mostly Cloudy,0,2013-08-13 19:25:00
3:40 PM,62.6,57.2,82,29.73,10.0,SW,4.6,-,N/A,,Mostly Cloudy,220,2013-08-13 19:40:00
3:51 PM,63.0,59.0,87,29.72,10.0,SW,4.6,-,N/A,,Overcast,230,2013-08-13 19:51:00
4:09 PM,62.6,59.0,88,29.72,10.0,South,4.6,-,N/A,,Overcast,190,2013-08-13 20:09:00
4:51 PM,63.0,59.0,87,29.72,10.0,WSW,4.6,-,N/A,,Overcast,250,2013-08-13 20:51:00
5:24 PM,62.6,59.0,88,29.73,10.0,West,3.5,-,N/A,,Overcast,270,2013-08-13 21:24:00
5:51 PM,62.1,57.9,86,29.73,10.0,Calm,Calm,-,N/A,,Overcast,0,2013-08-13 21:51:00
6:51 PM,63.0,57.9,84,29.73,10.0,West,3.5,-,N/A,,Scattered Clouds,260,2013-08-13 22:51:00
7:51 PM,60.1,59.0,96,29.71,10.0,Calm,Calm,-,N/A,,Overcast,0,2013-08-13 23:51:00
8:51 PM,59.0,57.9,96,29.72,9.0,Calm,Calm,-,N/A,,Overcast,0,2013-08-14 00:51:00
9:49 PM,60.8,57.2,88,29.74,10.0,WSW,5.8,-,N/A,,Overcast,250,2013-08-14 01:49:00
9:51 PM,60.1,57.9,93,29.73,10.0,WSW,8.1,-,N/A,,Overcast,240,2013-08-14 01:51:00
10:10 PM,60.8,57.2,88,29.74,10.0,WSW,6.9,16.1,N/A,,Overcast,250,2013-08-14 02:10:00
10:24 PM,59.0,57.2,94,29.75,10.0,WSW,10.4,17.3,N/A,,Overcast,250,2013-08-14 02:24:00
10:39 PM,59.0,55.4,88,29.75,10.0,WSW,8.1,17.3,N/A,,Overcast,250,2013-08-14 02:39:00
10:51 PM,57.9,55.0,90,29.74,10.0,WSW,5.8,-,N/A,,Overcast,250,2013-08-14 02:51:00
11:39 PM,57.2,51.8,82,29.76,10.0,WSW,10.4,17.3,N/A,,Overcast,250,2013-08-14 03:39:00
11:51 PM,55.9,52.0,87,29.75,10.0,WSW,6.9,-,N/A,,Overcast,240,2013-08-14 03:51:00